Find OneWeb SL0335

NORAD ID: 49201 Int'l Des: 2021-083 Owner: ONEWEBN Country: UK Constellation: oneweb operational
LEOCIRCULARPOLARONEWEB_TYPE

Live Position

Loading 3D Globe...

About OneWeb SL0335

Description loading...

Upcoming Passes

Passes for default location (London). Set your location on the main map for personalized predictions.

Altitude History

Loading altitude history...

Two-Line Element Set

1 49201U 21083R 26121.81910083 -.00000093 00000-0 -28837-3 0 9997
2 49201 87.8957 329.4709 0001718 93.1093 267.0232 13.13470201224831
Epoch: May 1, 2026 • Age: 8 hours

Current Status

Altitude 1213.1 km
Velocity 7.25 km/s
Sub-Earth Point -2.96°S, 129.06°W
Launch Date Sep 14, 2021
Age 4.6 years
Type internet

Technical Details

Classification Payload
Mass 148.00 kg
Dry Mass 140.00 kg
Total Mass 148.00 kg
Length 1.30 m
Diameter 1.00 m
Span 5.00 m
Shape Trapezoid+2 pan
Manufacturer ONEWUS
Bus Type ARROW
Phase Status In Orbit
Owner/State ONEWEBN/UK

Most Searched